Location: Chattenden
(51.4167°N, 0.5167°E)
Time: 02:09:05
(UTC+00:00)

Daily predictions for brighter satellites

Satellite Brightness Start Highest point End
(mag) Time Altitude Azimuth Time Altitude Azimuth Time Altitude Azimuth
USA 215 4.1 03:21:10 10° E 03:25:43 46° ENE 03:25:43 46° ENE
Cosmos 1943 Rocket 3.1 04:06:39 42° SE 04:07:24 45° ESE 04:12:46 10° NE
CZ-2C R/B 3.9 04:05:32 10° SE 04:10:32 38° ENE 04:13:25 22° NNE
CENTAUR R/B 3.0 04:16:08 49° SSE 04:17:23 57° ESE 04:24:22 10° NE
Cosmos 2297 4.2 04:21:07 48° SSE 04:22:15 57° ESE 04:27:53 10° NE
NOSS 3-2 (A) 3.3 04:27:49 73° SSE 04:28:13 76° SE 04:34:50 10° NE
Cosmos 2278 Rocket 3.5 04:33:50 28° N 04:33:50 28° N 04:36:49 10° NNE
Envisat 4.3 04:29:52 10° NNE 04:34:38 39° E 04:39:22 10° SSE
NOSS 3-2 (C) 4.0 04:33:35 33° S 04:35:54 54° SE 04:42:13 10° NE
SKYMED 2 4.3 04:32:57 10° SE 04:37:10 51° ENE 04:37:12 51° ENE
Meteor 2-3 Rocket 3.8 04:37:43 10° S 04:43:22 77° E 04:49:08 10° NNE
Cosmos 968 Rocket 4.0 04:42:38 17° S 04:46:27 58° ESE 04:51:30 10° NNE
Landsat 5 4.4 04:42:27 10° SE 04:46:50 51° ENE 04:48:26 34° NNE
Cosmos 921 Rocket 3.5 04:50:35 54° SSE 04:50:35 54° SSE 04:54:03 10° SSE
DNEPR-1 R/B 3.8 04:53:14 70° N 04:53:38 76° NE 04:59:02 10° SE
Meteor 1-26 Rocket 4.2 04:53:50 45° NNW 04:55:41 73° W 05:01:28 10° S
Cosmos 1812 3.4 04:56:57 51° SE 04:56:57 51° SE 04:59:58 10° SSE
H-2A R/B 4.2 04:54:10 10° ESE 04:57:39 25° ENE 05:01:13 10° N
Cosmos 1151 Rocket 3.2 05:01:35 42° N 05:02:59 72° ENE 05:07:22 10° SSE
USA 238 DEB 3.6 05:00:10 28° SW 05:03:52 83° SE 05:10:50 10° NE
USA 238 3.6 05:00:13 28° SW 05:03:58 83° SE 05:10:56 10° NE
Cosmos 2344 3.4 05:03:34 38° WSW 05:06:42 72° NW 05:14:55 10° NE
Cosmos 1766 Rocket 4.5 05:03:26 10° SSE 05:07:37 48° E 05:11:47 10° NNE
USA 215 3.2 05:04:11 10° SE 05:10:41 66° SW 05:13:03 41° WNW
Kosmos-917 3.6 05:12:30 81° SSW 05:12:38 86° SE 05:17:52 10° NE
Meteor 1-31 Rocket 3.3 05:09:21 10° NNE 05:13:13 60° ESE 05:17:04 10° S
Cosmos 2279 Rocket 4.0 05:07:16 10° N 05:13:31 81° E 05:19:43 10° SSE
Cosmos 2297 Rocket 4.2 05:09:40 11° NNW 05:13:35 20° NNE 05:17:43 10° E
Cosmos 1328 Rocket 3.8 05:12:41 20° N 05:15:40 70° ENE 05:20:01 10° SSE
SJ-12 3.8 05:14:30 10° NNE 05:18:40 89° W 05:22:48 10° SSW
FALCON 9 DEB 3.4 05:21:07 59° SSE 05:21:10 59° SSE 05:24:32 10° ENE
Cosmos 2369 Rocket 2.3 05:16:18 10° SSW 05:21:51 73° ESE 05:27:28 10° NNE
Cosmos 1862 3.6 05:19:56 10° S 05:23:51 65° E 05:27:47 10° NNE
COSMO-SKYMED 1 2.6 05:20:57 10° S 05:25:14 57° W 05:25:48 52° WNW
H-2A R/B 2.5 05:22:57 10° N 05:26:40 72° WNW 05:30:22 10° SSW
Cosmos 1634 Rocket 4.0 05:22:25 10° NNW 05:28:33 55° W 05:34:35 10° SSW
Cosmos 836 Rocket 4.5 05:27:51 35° NW 05:29:53 60° WSW 05:35:01 10° S
Lacrosse 4 Rocket 4.0 05:33:45 10° N 05:35:46 13° NNE 05:37:47 10° NE
CZ-4B R/B 4.3 05:32:38 10° NNE 05:35:57 34° E 05:39:14 10° SSE
Tsikada Rocket 4.2 05:33:21 10° SW 05:39:15 44° WNW 05:45:17 10° N
Cosmos 2263 Rocket 4.4 05:37:50 10° N 05:39:28 11° NNE 05:41:07 10° NNE
CZ-4B R/B 3.5 05:38:27 10° ESE 05:41:14 25° ENE 05:44:00 10° N
MOS 1-B Rocket 4.4 05:35:56 10° SSW 05:41:41 38° W 05:44:43 23° NW
YAOGAN 6 3.8 05:38:11 10° N 05:40:14 28° NNW 05:40:14 28° NNW
Cosmos 783 Rocket 4.5 05:37:36 17° NNW 05:41:43 84° ENE 05:46:55 10° SSE
Cosmos 1408 Rocket 4.3 05:38:48 10° S 05:42:58 53° E 05:47:11 10° NNE
SAR-Lupe-3 4.5 05:40:16 10° N 05:43:49 60° WNW 05:47:22 10° SSW
Cosmos 1656 Rocket 3.7 05:40:06 10° SSW 05:45:31 80° ESE 05:51:00 10° NNE
Cosmos 1503 Rocket 4.4 05:40:50 10° SSW 05:46:04 67° ESE 05:51:23 10° NNE
CZ-4C R/B 2.9 05:43:04 10° S 05:46:01 49° WSW 05:46:01 49° WSW
DMSP B5D2-2 4.0 05:41:26 10° SSE 05:46:40 90° W 05:51:55 10° NNW
Cosmos 2227 Rocket 4.0 05:44:37 10° NNW 05:49:08 24° NE 05:53:38 10° E
CZ-2C R/B 3.1 05:45:40 10° SSW 05:50:49 41° W 05:54:54 15° NNW
Cosmos 1943 Rocket 2.6 05:48:14 23° WSW 05:51:15 41° NW 05:56:37 10° NNE
Cosmos 1486 Rocket 3.9 05:48:26 10° SSW 05:53:43 70° WNW 05:59:00 10° NNE
Cosmos 1515 Rocket 3.4 05:51:36 10° NNW 05:56:01 84° WSW 06:00:21 10° S
SL-8 R/B 4.4 05:54:21 24° WSW 05:56:43 41° SSW 06:01:12 10° SE
Meteor 2-15 4.3 05:51:08 10° NNW 05:57:13 74° W 06:03:13 10° S
FALCON 9 DEB 2.6 05:56:51 49° WNW 05:57:28 71° N 06:00:22 10° ENE
Cosmos 2180 Rocket 4.4 05:52:41 10° NNW 05:58:49 64° W 06:04:52 10° S
Meteor 1-27 Rocket 3.8 05:53:18 10° NNW 05:58:56 84° ENE 06:04:41 10° SSE
COSMOS 2487 3.6 05:59:58 11° N 06:03:00 38° ENE 06:06:10 10° SE
Iridium 2 4.3 05:59:40 10° SW 06:03:05 32° WNW 06:06:33 10° NNW
Cosmos 773 Rocket 3.9 05:58:39 13° NNW 06:03:22 75° WSW 06:08:33 10° SSE
FALCON 9 DEB 2.7 06:03:16 41° WNW 06:04:03 63° N 06:06:54 10° ENE
Cosmos 2084 Rocket 4.4 06:04:32 23° NW 06:05:19 25° NNW 06:08:38 10° NNE
FALCON 9 DEB 2.7 06:05:15 38° WNW 06:06:06 61° N 06:08:57 10° ENE
Cosmos 2297 4.3 06:03:08 18° W 06:06:45 34° NW 06:11:58 10° NNE
SJ 16-02 2.8 06:03:18 10° S 06:07:25 41° ESE 06:11:33 10° NE
NOAA 11 4.1 06:02:02 10° NNE 06:07:31 81° WNW 06:13:00 10° SSW
CENTAUR R/B 2.9 06:03:21 17° W 06:08:16 50° NNW 06:15:40 10° NE
Alouette 2 Rocket 3.5 06:05:22 10° NNW 06:09:31 69° ENE 06:13:03 10° SSE
NOAA 12 4.3 06:07:23 10° NNE 06:12:42 77° ESE 06:17:57 10° S
Envisat 3.5 06:09:00 10° N 06:13:38 36° WNW 06:18:14 10° SW
Meteor 2-19 Rocket 4.4 06:07:59 10° S 06:14:03 87° W 06:20:09 10° N
Cosmos 1340 Rocket 3.5 06:11:51 10° S 06:15:44 57° E 06:19:39 10° NNE
SL-27 R/B 2.5 06:14:05 17° NNW 06:16:41 58° WSW 06:20:10 10° S
Cosmos 2278 Rocket 3.9 06:15:42 14° NW 06:17:09 15° NNW 06:20:17 10° N
Cosmos 1500 Rocket 3.9 06:14:45 10° S 06:19:11 72° E 06:23:40 10° NNE
Cosmos 1939 Rocket 3.0 06:15:19 10° NNE 06:19:18 77° ESE 06:23:12 10° S
NOSS 3-2 (A) 4.1 06:15:14 16° W 06:19:39 40° NNW 06:26:14 10° NE
FALCON 9 DEB 2.7 06:21:30 23° W 06:23:07 63° N 06:26:00 10° ENE
Cosmos 2098 Rocket 3.9 06:20:24 10° SW 06:24:03 29° WNW 06:28:31 10° N
Aureole 1 Rocket 4.4 06:26:23 12° NNW 06:26:23 12° NNW 06:27:04 10° NNW
NOSS 3-2 (C) 3.8 06:21:14 10° WSW 06:26:56 48° NNW 06:33:39 10° NE
Cosmos 968 Rocket 4.3 06:24:13 10° WSW 06:28:37 28° NW 06:33:02 10° N
Okean O Rocket 4.2 06:25:55 10° NE 06:29:33 24° E 06:33:08 10° SSE
Cosmos 1805 Rocket 4.3 06:26:32 10° S 06:30:50 57° E 06:35:08 10° NNE
Okean 3 Rocket 4.3 06:28:33 10° SW 06:32:37 32° WNW 06:36:43 10° N
Sich 1 4.2 06:28:35 10° SSE 06:32:41 47° E 06:36:48 10° NNE
H-2A R/B 2.4 06:29:16 10° S 06:33:22 46° W 06:37:37 10° NNW
ATLAS 3B R/B 3.7 06:29:12 10° SSW 06:35:27 49° ESE 06:42:00 10° NE
ADEOS 3.9 06:32:49 10° N 06:37:45 44° WNW 06:42:41 10° SW
Cosmos 158 Rocket 3.9 06:33:39 10° NNW 06:38:45 81° WSW 06:43:58 10° SSE
ATLAS 5 CENTAUR R/B 2.7 06:35:29 10° SSW 06:39:10 44° SE 06:43:20 10° NE
Cosmos 1500 4.5 06:35:42 10° SSE 06:39:20 44° E 06:42:58 10° NNE
Cosmos 1515 3.7 06:40:46 10° NNW 06:44:31 60° W 06:48:15 10° S
Meteor PRIRODA 4.2 06:41:54 10° N 06:45:14 34° WNW 06:48:32 10° SW
Okean 1 3.4 06:41:31 10° N 06:45:30 79° E 06:49:26 10° SSE
CZ-2C R/B 3.1 06:41:32 10° N 06:46:10 48° WNW 06:50:57 10° SW
Cosmos 1354 Rocket 4.1 06:41:08 10° SW 06:46:17 53° WNW 06:51:31 10° NNE
Meteor 1-31 Rocket 4.3 06:44:39 10° NNW 06:47:12 17° WNW 06:49:44 10° W
USA 238 DEB 4.2 06:49:15 10° W 06:55:30 40° NNW 07:02:08 10° NE
USA 238 4.2 06:49:20 10° W 06:55:36 40° NNW 07:02:14 10° NE
OPS 6432 4.1 06:54:46 10° NW 06:57:42 84° NE 07:00:59 10° SE
FALCON 9 DEB 3.1 06:54:35 10° W 06:57:58 66° N 07:01:22 10° E
Cosmos 2297 Rocket 2.5 06:53:02 10° NNW 06:58:43 69° ENE 07:04:22 10° SE
SMAP 3.1 06:54:50 10° N 06:59:25 59° WNW 07:04:00 10° SSW
FengYun 1-2 T 4.3 06:57:12 10° N 07:02:36 57° WNW 07:07:57 10° SW
Cosmos 1809 Rocket 4.5 06:57:42 10° SSW 07:03:53 80° W 07:10:05 10° N
CZ-4 R/B 3.8 07:02:07 10° NE 07:05:24 25° E 07:08:38 10° SSE
CZ-2D R/B 3.2 07:02:04 10° N 07:05:51 69° WNW 07:09:37 10° SSW
Cosmos 2369 Rocket 3.0 07:01:39 10° W 07:06:26 28° NW 07:11:15 10° NNE
